CST-100 STARLINER OFT-2

Last updated on Thu May 26 2022 00:02:05 GMT+0000 (Coordinated Universal Time)

1 52715U 22055A 22145.88469517 -.00000456 00000+0 00000+0 0 9990 2 52715 51.6397 87.0507 0006293 107.1825 315.5261 15.49516631 907

Satellite not in orbit

CST-100 STARLINER OFT-2